Погода Нижний Тагил

Погода Нижний Тагил : погода сейчас, прогноз погоды и архив. Всё, что Вы хотите узнать о погоде Нижний Тагил!

Хотите узнать прогноз погоды Нижний Тагил? Тогда Вам сюда: Погода Нижний Тагил

Поиск расширенной информации на нашем сайте:

Полезная информация: антигравийная пленка фото здесь

Другие новости

Новости СМИ2

Главная страница сайта

Новости сайта

02.10.2013

Напоминаем, что на нашем новом сайте вы можете получить высокодетализированные прогнозы погоды по пунктам России, СНГ и мира (включающие важные для авиации метеовеличины, такие как направление и скорость ветра, видимость, явления погоды, количество и форма облачности, нижняя и верхняя граница облачности), а также ознакомиться с разнообразными материалами по авиационной метеорологии и подборкой полезных ссылок на эту тему.

Сайт Метеоцентр.Азия посвящён разработке технологий оптимизации авиаметеорологического обслуживания, включая проектирование и перспективное создание нескольких автоматизированных авиаметеорологических систем:
- система выпуска высокодетальных прогностических карт явлений погоды для нижнего воздушного пространства по России и ближнему зарубежью;
- система верификации прогнозов TAF (выпускаемых синоптиками официальных АМСГ РФ и ближнего зарубежья) и AUTOTAF (выпускаемых сайтом Метеоцентр.Азия) - выявление ошибок, онлайн-сопоставление с фактической погодой METAR, автоматическое внесение коррективов в прогнозы при резком отклонении фактической погоды от прогноза, подсчёт оправдываемости прогнозов по элементам и в целом;
- система обработки, анализа и отображения авиаметеорологической информации для применения провайдерами метеорологической информации.

Рекомендуем: Запчасти крайслер пацифика. Защитная шторка против солнца.

Погода Нижний Тагил - сегодня

Время (UTC), дата Ветер
(°,м/с) 
Видим.   Явления Облачность Т
(°С)
Тd
(°С)
f(%) Тe
(°С)
Pmin
(гПа)
dP
(гПа)
Po
(мм)
O2
(г/м3)
Тmin Tmax R s Состояние
почвы
21 30.04.15 110 (В) 20000 м    ясно 
+7.6 +3.9 77 +9  1020.1  -0.3  741  290           
00 01.05.15 120 (ЮВ) 20000 м    ясно 
+5.8 +3.7 86 +7  1020.3  741  292           
03 01.05.15 230 (ЮЗ) 20000 м    4/0 верхняя 
[Ci fib]
+16.3 +5 47 +18  1019.5  0.3  742  281  +5.6        сухая 
06 01.05.15 250 (З) 20000 м    ясно 
+22.7 +3.2 28 +23  1018.7  0.1  742  275           
09 01.05.15 300 (СЗ) 7-10{11}  20000 м    5/4 600 м кучево-дожд., верхняя 
[Cb cap|Ci fib]
+23.7 +2.3 25 +24  1018.7  742  275           
12 01.05.15 330 (СЗ) 6-10{11}  20000 м    8/3 600 м средняя, верхняя 
[Sc diur, vesp|Ac trans|Ci fib]
+19.9 +3.8 34 +20  1021  1.9  743  278           
15 01.05.15 350 (С) 7-10{12}  20000 м    10/3 600 м верхняя 
[Sc|Cs]
+14.2 -7.1 22 +13  1024.9  3.2  745  286    +24.5       
18 01.05.15 030 (СВ) 6-10{12}  20000 м    9/0 средняя 
[Ac trans]
+9.4 -7.8 29 +8  1029.2  3.6  748  292           
21 01.05.15 050 (СВ) 6-10{11}  20000 м    10/0 средняя 
[Ac und]
+5.3 -8.2 37 +3  1032.6  2.8  750  297           
00 02.05.15 070 (В) 5{11}  20000 м    10/0 средняя, верхняя 
[Ac trans|Ci fib]
+2.3 -9.3 42 1034.7  1.7  752  301           
03 02.05.15 090 (В) 20000 м    9/0 верхняя 
[Ci]
+4 -10.9 33 +2  1036.3  1.7  753  300  +2.1        сухая 
06 02.05.15 080 (В) 6{11}  20000 м    ясно 
+8 -11.6 24 +6  1035.3  -0.5  752  296           
09 02.05.15 120 (ЮВ) 6-10{11}  20000 м    ясно 
+12.5 -12.6 16 +11  1033.5  -1.3  752  291           
12 02.05.15 120 (ЮВ) 6-10{11}  20000 м    ясно 
+14.1 -11.8 15 +13  1031.6  -1.6  750  288           
15 02.05.15 120 (ЮВ) 4{10}  20000 м    ясно 
+11.5 -10.1 21 +11  1030.7  -1.1  749  291    +14.6       
18 02.05.15 120 (ЮВ) 20000 м    ясно 
+7.2 -9.6 29 +6  1031.1  -0.2  749  295           
21 02.05.15 140 (ЮВ) 20000 м    ясно 
+6.2 -9.2 32 +5  1030.7  -0.5  749  296           
00 03.05.15 150 (ЮВ) 20000 м    3/0 верхняя 
[Ci fib]
+4.1 -8.4 40 +3  1030.1  -0.7  748  298           
03 03.05.15 150 (ЮВ) 20000 м    ясно 
+7.7 -7.3 34 +6  1029  -0.7  748  294  +3.7        сухая 
06 03.05.15 150 (ЮВ) 20000 м    ясно 
+14.4 -3.5 29 +14  1027.1  -1.1  747  286           
09 03.05.15 130 (ЮВ) 5-10{10}  20000 м    ясно 
+18.8 -1.3 26 +19  1024.5  -2.1  745  281           
12 03.05.15 170 (Ю) 4{11}  20000 м    ясно 
+20.6 -0.4 24 +21  1022.2  -2.1  744  279           
15 03.05.15 130 (ЮВ) 4{10}  н/о    н/о 
+17.6 -1.6 27 +18  1021.2  -1.2  743  281    +20.7       
18 03.05.15 120 (ЮВ) 20000 м    ясно 
+7.3 +0 60 +7  1021.8  -0.5  743  291           
21 03.05.15 130 (ЮВ) 20000 м    ясно 
+8.7 +1.1 59 +8  1020.7  -1  742  289           
Время (UTC), дата Ветер
(°,м/с) 
Видим.   Явления Облачность Т
(°С)
Тd
(°С)
f(%) Тe
(°С)
Pmin
(гПа)
dP
(гПа)
Po
(мм)
O2
(г/м3)
Тmin Tmax R s Состояние
почвы

Для получения пояснительной информации подведите курсор к названию столбца.

ПОГОДА Нижний Тагил - архив

Всё, что Вы хотите узнать о погоде Нижний Тагил - удобно и подробно!

Выберите нужную дату (начиная с 1 января 2013* года) и нажмите кнопку "Найти".
Будут отображены архивные сводки погоды по пункту Нижний Тагил, начиная с указанной даты.


Отображать данные в формате CSV (для использования в таблицах Excel)


Внимание! Наш архив погоды предназначен исключительно для личного некоммерческого использования в познавательных целях. Если Вам необходимы официальные справки о состоянии погоды (для производственных, юридических, коммерческих и т.п. целей), обращайтесь в органы Росгидромета.

*Примечание: данная дата относится к архиву по метеостанциям СССР (Россия, СНГ, Балтия).
Архив по метеостанциям Зарубежной Европы и Азии (кроме Китая) хранится 10 дней, по другим регионам земного шара (Китай, Африка, Америка, Австралия, Океания) - 1 день.

Нижний Тагил - район местоположения метеостанции


Название, широта, долгота, высота метеостанции:
Нижний Тагил 57.9°ш. 60.1°д. 260 м над ур. моря [Российская Федерация]

Дополнительная информация

В oтличие oт бoльшинства пoгoдных сайтoв мы публикуем пoдрoбную метеoинфoрмацию в детальнoм прoфессиoнальнoм фoрмате.

Характеристики температуры и влажнoсти вoздуха измеряются на высoте 2 м в тени вдали oт зданий и деревьев.
Скoрoсть ветра измеряется на высoте 10 м (на урoвне рoста челoвека скoрoсть ветра ниже в 1.5-2 раза). Если метеoстанция нахoдится в гoрoде или в лесу, тo скoрoсть ветра занижена на 2-4 м/с пo сравнению с oткрытым местoм. Скoрoсть ветра над акватoриями крупных рек и oзёр, а также на вершинах хoлмoв на 2-5 м/с выше, чем в oбычных услoвиях.
Атмoсфернoе давление в разных тoчках местнoсти мoжет значительнo oтличаться oт давления на метеoстанции, в зависимoсти oт услoвий рельефа (при пoдъёме на 10 м давление пoнижается примернo на 1 мм рт.ст.).